When you browse on this site, cookies collect data to enhance your experience and personalize the content and advertising you see.
Visit our Privacy Policy to learn more. By continuing to use the site, you agree to this use of cookies and data.
  • In Latvia
  • List of Countries
  • For 7 days
  • Water Temperature
  • Weather Map
  • Weather Widgets
  • user-avatar
    Login

    Hourly Weather Verhnetavrichanskiy

    Today, 22 August, Thursday

    Time Temperature Precipitation Wind Pressure Humidity
    00:00 +29°C° 0 mm 6 mps 754 mmHg 38%
    01:00 +28°C° 0 mm 5 mps 754 mmHg 40%
    02:00 +28°C° 0 mm 5 mps 754 mmHg 42%
    03:00 +27°C° 0 mm 3 mps 755 mmHg 42%
    04:00 +26°C° 0 mm 3 mps 755 mmHg 45%
    05:00 +26°C° 0 mm 4 mps 755 mmHg 48%
    06:00 +25°C° 0 mm 4 mps 755 mmHg 50%
    07:00 +28°C° 0 mm 4 mps 755 mmHg 46%
    08:00 +30°C° 0 mm 4 mps 755 mmHg 41%
    09:00 +33°C° 0 mm 5 mps 755 mmHg 37%
    10:00 +35°C° 0 mm 5 mps 755 mmHg 31%
    11:00 +37°C° 0 mm 5 mps 755 mmHg 26%
    12:00 +40°C° 0 mm 5 mps 754 mmHg 21%
    13:00 +40°C° 0 mm 5 mps 754 mmHg 19%
    14:00 +40°C° 0 mm 5 mps 754 mmHg 18%
    15:00 +41°C° 0 mm 6 mps 754 mmHg 17%
    16:00 +40°C° 0 mm 5 mps 754 mmHg 19%
    17:00 +39°C° 0 mm 5 mps 754 mmHg 21%
    18:00 +37°C° 0 mm 5 mps 754 mmHg 23%
    19:00 +35°C° 0 mm 5 mps 754 mmHg 28%
    20:00 +33°C° 0 mm 5 mps 754 mmHg 32%
    21:00 +30°C° 0 mm 5 mps 754 mmHg 36%
    22:00 +30°C° 0 mm 5 mps 754 mmHg 37%
    23:00 +30°C° 0 mm 5 mps 754 mmHg 37%

    Tomorrow, 23 August, Friday

    Time Temperature Precipitation Wind Pressure Humidity
    00:00 +29°C° 0 mm 5 mps 754 mmHg 37%
    01:00 +29°C° 0 mm 5 mps 754 mmHg 38%
    02:00 +28°C° 0 mm 5 mps 754 mmHg 39%
    03:00 +28°C° 0 mm 5 mps 755 mmHg 40%
    04:00 +27°C° 0 mm 4 mps 755 mmHg 42%
    05:00 +27°C° 0 mm 4 mps 754 mmHg 43%
    06:00 +26°C° 0 mm 4 mps 754 mmHg 45%
    07:00 +28°C° 0 mm 4 mps 755 mmHg 41%
    08:00 +30°C° 0 mm 5 mps 755 mmHg 38%
    09:00 +32°C° 0 mm 5 mps 755 mmHg 35%
    10:00 +34°C° 0 mm 5 mps 755 mmHg 30%
    11:00 +36°C° 0 mm 5 mps 755 mmHg 25%
    12:00 +39°C° 0 mm 5 mps 755 mmHg 19%
    13:00 +38°C° 0 mm 4 mps 755 mmHg 18%
    14:00 +40°C° 0 mm 4 mps 755 mmHg 17%
    15:00 +40°C° 0 mm 4 mps 754 mmHg 16%
    16:00 +38°C° 0 mm 4 mps 754 mmHg 18%
    17:00 +38°C° 0 mm 3 mps 754 mmHg 20%
    18:00 +37°C° 0 mm 3 mps 754 mmHg 21%
    19:00 +35°C° 0 mm 4 mps 754 mmHg 25%
    20:00 +34°C° 0 mm 6 mps 755 mmHg 29%
    21:00 +33°C° 0 mm 7 mps 755 mmHg 33%
    22:00 +32°C° 0 mm 7 mps 755 mmHg 34%
    23:00 +32°C° 0 mm 6 mps 755 mmHg 34%

    Day after tomorrow, 24 August, Saturday

    Time Temperature Precipitation Wind Pressure Humidity
    00:00 +30°C° 0 mm 6 mps 755 mmHg 35%
    01:00 +30°C° 0 mm 6 mps 755 mmHg 37%
    02:00 +29°C° 0 mm 6 mps 755 mmHg 38%
    03:00 +29°C° 0 mm 6 mps 755 mmHg 39%
    04:00 +28°C° 0 mm 6 mps 755 mmHg 40%
    05:00 +28°C° 0 mm 6 mps 755 mmHg 42%
    06:00 +27°C° 0 mm 6 mps 755 mmHg 43%
    07:00 +29°C° 0 mm 6 mps 755 mmHg 39%
    08:00 +32°C° 0 mm 6 mps 755 mmHg 35%
    09:00 +33°C° 0 mm 6 mps 755 mmHg 31%
    10:00 +35°C° 0 mm 6 mps 755 mmHg 28%
    11:00 +36°C° 0 mm 6 mps 755 mmHg 25%
    12:00 +39°C° 0 mm 6 mps 755 mmHg 22%
    13:00 +39°C° 0 mm 6 mps 755 mmHg 21%
    14:00 +39°C° 0 mm 7 mps 755 mmHg 21%
    15:00 +40°C° 0 mm 7 mps 755 mmHg 20%
    16:00 +39°C° 0 mm 6 mps 755 mmHg 23%
    17:00 +37°C° 0 mm 5 mps 755 mmHg 25%
    18:00 +36°C° 0 mm 4 mps 755 mmHg 27%
    19:00 +34°C° 0.4 mm 4 mps 755 mmHg 32%
    20:00 +32°C° 0.4 mm 5 mps 755 mmHg 37%
    21:00 +29°C° 0.4 mm 5 mps 755 mmHg 42%
    22:00 +29°C° 0 mm 5 mps 755 mmHg 42%
    23:00 +29°C° 0 mm 5 mps 755 mmHg 42%

    25 August, Sunday

    Time Temperature Precipitation Wind Pressure Humidity
    00:00 +29°C° 0 mm 5 mps 755 mmHg 42%
    01:00 +28°C° 0 mm 5 mps 755 mmHg 42%
    02:00 +28°C° 0 mm 5 mps 755 mmHg 41%
    03:00 +28°C° 0 mm 5 mps 755 mmHg 41%
    04:00 +28°C° 0 mm 5 mps 755 mmHg 42%
    05:00 +27°C° 0 mm 5 mps 755 mmHg 44%
    06:00 +27°C° 0 mm 6 mps 755 mmHg 46%
    07:00 +28°C° 0 mm 6 mps 755 mmHg 45%
    08:00 +28°C° 0 mm 7 mps 755 mmHg 45%
    09:00 +29°C° 0 mm 7 mps 755 mmHg 44%
    10:00 +29°C° 0.8 mm 7 mps 755 mmHg 44%
    11:00 +29°C° 0.8 mm 6 mps 755 mmHg 44%
    12:00 +29°C° 0.8 mm 6 mps 755 mmHg 45%
    13:00 +29°C° 0.1 mm 6 mps 755 mmHg 45%
    14:00 +29°C° 0.1 mm 6 mps 755 mmHg 45%
    15:00 +29°C° 0.1 mm 7 mps 755 mmHg 45%
    16:00 +29°C° 0.1 mm 6 mps 755 mmHg 46%
    17:00 +28°C° 0.1 mm 5 mps 755 mmHg 47%
    18:00 +28°C° 0.1 mm 5 mps 755 mmHg 48%
    19:00 +27°C° 0.2 mm 5 mps 755 mmHg 49%
    20:00 +27°C° 0.2 mm 5 mps 756 mmHg 51%
    21:00 +26°C° 0.2 mm 4 mps 756 mmHg 53%
    22:00 +26°C° 0 mm 5 mps 756 mmHg 52%
    23:00 +26°C° 0 mm 5 mps 756 mmHg 51%

    26 August, Monday

    Time Temperature Precipitation Wind Pressure Humidity
    00:00 +26°C° 0 mm 5 mps 756 mmHg 50%
    01:00 +25°C° 0 mm 5 mps 756 mmHg 52%
    02:00 +24°C° 0 mm 6 mps 756 mmHg 53%
    03:00 +24°C° 0 mm 6 mps 756 mmHg 55%
    04:00 +24°C° 0 mm 6 mps 756 mmHg 53%
    05:00 +24°C° 0 mm 6 mps 756 mmHg 52%
    06:00 +25°C° 0 mm 5 mps 757 mmHg 51%
    07:00 +26°C° 0 mm 6 mps 757 mmHg 46%
    08:00 +27°C° 0 mm 6 mps 757 mmHg 41%
    09:00 +28°C° 0 mm 7 mps 758 mmHg 36%
    10:00 +29°C° 0 mm 7 mps 758 mmHg 33%
    11:00 +30°C° 0 mm 7 mps 758 mmHg 31%
    12:00 +32°C° 0 mm 8 mps 758 mmHg 29%
    13:00 +33°C° 0 mm 7 mps 758 mmHg 29%
    14:00 +33°C° 0 mm 7 mps 758 mmHg 29%
    15:00 +33°C° 0 mm 7 mps 758 mmHg 29%
    16:00 +32°C° 0 mm 6 mps 758 mmHg 30%
    17:00 +32°C° 0 mm 6 mps 759 mmHg 32%
    18:00 +30°C° 0 mm 5 mps 759 mmHg 33%
    19:00 +29°C° 0 mm 5 mps 759 mmHg 35%
    20:00 +27°C° 0 mm 5 mps 759 mmHg 37%
    21:00 +26°C° 0 mm 5 mps 760 mmHg 40%
    22:00 +25°C° 0 mm 5 mps 760 mmHg 42%
    23:00 +25°C° 0 mm 5 mps 760 mmHg 44%

    27 August, Tuesday

    Time Temperature Precipitation Wind Pressure Humidity
    00:00 +23°C° 0 mm 6 mps 760 mmHg 46%
    01:00 +23°C° 0 mm 6 mps 761 mmHg 45%
    02:00 +22°C° 0 mm 6 mps 761 mmHg 44%
    03:00 +22°C° 0 mm 6 mps 761 mmHg 42%
    04:00 +22°C° 0 mm 6 mps 761 mmHg 43%
    05:00 +21°C° 0 mm 6 mps 761 mmHg 44%
    06:00 +21°C° 0 mm 6 mps 761 mmHg 44%
    07:00 +22°C° 0 mm 6 mps 761 mmHg 41%
    08:00 +24°C° 0 mm 7 mps 761 mmHg 39%
    09:00 +26°C° 0 mm 7 mps 761 mmHg 36%
    10:00 +27°C° 0 mm 7 mps 761 mmHg 33%
    11:00 +28°C° 0 mm 7 mps 761 mmHg 31%
    12:00 +29°C° 0 mm 7 mps 761 mmHg 29%
    13:00 +30°C° 0 mm 7 mps 761 mmHg 27%
    14:00 +30°C° 0 mm 7 mps 760 mmHg 25%
    15:00 +30°C° 0 mm 6 mps 760 mmHg 24%
    16:00 +30°C° 0 mm 6 mps 760 mmHg 24%
    17:00 +29°C° 0 mm 5 mps 760 mmHg 24%
    18:00 +28°C° 0 mm 4 mps 760 mmHg 24%
    19:00 +27°C° 0 mm 4 mps 760 mmHg 24%
    20:00 +25°C° 0 mm 4 mps 760 mmHg 25%
    21:00 +22°C° 0 mm 4 mps 760 mmHg 25%
    22:00 +22°C° 0 mm 4 mps 760 mmHg 26%
    23:00 +21°C° 0 mm 4 mps 761 mmHg 26%
    Show more